User: anonymous   Login
Location: Caltech
(34.1382°N, 118.1253°W)
Time: 15:13:13
(UTC-07:00)
Language:

PANSAT - Orbit

View from above orbital plane
View from above orbital plane
View from above satellite
View from above satellite

Ground track
Ground track

The orbit data is extracted from the following two-line orbital elements,

1 25520U 98064B   16240.21510149  .00001214  00000-0  35504-4 0  9996
2 25520  28.4564 185.8833 0005132 345.9524  14.0928 15.27840099989278
Epoch (UTC): 27 August 2016 05:09:44
Eccentricity: 0.0005132
inclination: 28.4564°
perigee height: 479 km
apogee height: 486 km
right ascension of ascending node: 185.8833°
argument of perigee: 345.9524°
revolutions per day: 15.27840099
mean anomaly at epoch: 14.0928°
orbit number at epoch: 98927

The dashed part of the orbit path shows where the satellite is in the earth's shadow,  

DLR